sat.trackr.live / text

‹ back to catalog

STARLINK-5631

NORAD 55346 · 2023-013R

PAYLOAD ACTIVE UNKNOWN

§ Identity

Operator
Country
US
Launch date
2023-01-26
Launch site
AFETR
Launch vehicle
Mass (kg)
RCS (m²)

Purposes: comms

External: N2YO · Heavens-Above · Gunter

§ Orbital elements

Epoch: 2026-09-20T09:17:51.944928Z

Period
94.27 min
Inclination
43.0046°
Eccentricity
0.0001614
Mean motion
15.27572901 rev/d
Perigee alt
482.0 km
Apogee alt
484.2 km
Semi-major
6,861.2 km
B*
-8.0056e-5
RAAN
283.5349°
Arg perigee
274.4063°
Mean anomaly
85.6604°
Rev number
20,145

§ Raw data

STARLINK-56311 55346U 23013R   26263.38740677 -.00002464  00000+0 -80056-4 0  99932 55346  43.0046 283.5349 0001614 274.4063  85.6604 15.27572901201454

JSON: /api/v1/satellites/55346 · /tle

For live sub-satellite position, see the globe view (requires WebGL).

§ Visibility from observer

Set your observer location to see the next 7 days of passes ≥ 10°. The values pass through the URL so the page stays shareable.

No JS? Fill the form by hand. The geolocation button needs JavaScript.